Zurück zum Katalog

N-1 R/B

AktivLEO
NORAD 8352·ROCKET BODY·🇯🇵 Japan

Gestartet Sep 9, 1975 von Tanegashima Space Center

Loading…

Nächste Überflüge (nächste 24 Stunden)

TLE

AktuellSource: Space-Track

Epoche: Sep 14, 2026, 15:09 UTC

1 08352U 75082B   26257.63156434 -.00000060  00000-0  84201-4 0  9990
2 08352  46.9864 132.1486 0084484 176.6427 205.3111 13.61118942536095

Verfolge N-1 R/B in Echtzeit mit AllMySat

Download on the App Store